This is the latest recevied weather packets stored in our database for station/object N5SRF. If no packets are shown the sender has not sent any weather packets the latest 10 day(s).
| Time | Temp. | Humidity | Pressure | Rain* | Wind** | Luminosity | Snow |
|---|---|---|---|---|---|---|---|
| 1787883514 | 27.78° C | 89% | 1017.7 hPa | 0 mm | - | 0 W/m² | - |
| 1787883212 | 27.78° C | 88% | 1017.7 hPa | 0 mm | - | 0 W/m² | - |
| 1787882907 | 27.78° C | 88% | 1017.3 hPa | 0 mm | - | 0 W/m² | - |
| 1787882604 | 27.78° C | 88% | 1017.2 hPa | 0 mm | - | 0 W/m² | - |
| 1787882299 | 27.78° C | 88% | 1017.5 hPa | 0 mm | - | 0 W/m² | - |
| 1787881994 | 27.78° C | 87% | 1017.6 hPa | 0 mm | - | 0 W/m² | - |
| 1787881689 | 27.78° C | 87% | 1017.7 hPa | 0 mm | - | 0 W/m² | - |
| 1787881384 | 27.78° C | 87% | 1017.4 hPa | 0 mm | - | 0 W/m² | - |
| 1787881079 | 27.78° C | 86% | 1017.4 hPa | 0 mm | - | 0 W/m² | - |
| 1787880769 | 28.33° C | 85% | 1017.5 hPa | 0 mm | - | 0 W/m² | - |
| 1787880468 | 28.33° C | 85% | 1017.3 hPa | 0 mm | - | 0 W/m² | - |
| 1787880162 | 28.33° C | 84% | 1017.3 hPa | 0 mm | - | 0 W/m² | - |
| 1787879856 | 28.33° C | 84% | 1017.3 hPa | 0 mm | - | 0 W/m² | - |
| 1787879551 | 28.89° C | 83% | 1017.1 hPa | 0 mm | - | 0 W/m² | - |
| 1787879247 | 28.89° C | 83% | 1017.2 hPa | 0 mm | - | 0 W/m² | - |
| 1787878944 | 29.44° C | 83% | 1017.2 hPa | 0 mm | - | 0 W/m² | - |
| 1787878643 | 29.44° C | 80% | 1017 hPa | 0 mm | - | 0 W/m² | - |
| 1787878338 | 30° C | 78% | 1017.1 hPa | 0 mm | - | 1 W/m² | - |
| 1787878034 | 30° C | 77% | 1016.7 hPa | 0 mm | - | 2 W/m² | - |
| 1787877729 | 30° C | 76% | 1016.6 hPa | 0 mm | - | 4 W/m² | - |
| 1787877424 | 30° C | 76% | 1016.7 hPa | 0 mm | - | 6 W/m² | - |
| 1787877121 | 30° C | 75% | 1016.6 hPa | 0 mm | - | 9 W/m² | - |
| 1787876820 | 30.56° C | 75% | 1016.3 hPa | 0 mm | - | 16 W/m² | - |
| 1787876516 | 30.56° C | 75% | 1016.4 hPa | 0 mm | - | 26 W/m² | - |
| 1787876214 | 30.56° C | 75% | 1016.4 hPa | 0 mm | - | 41 W/m² | - |
* Rain latest hour (hover to see other rain measurements)
** Current wind speed in m/s (hover to see current wind gust speed)